Deer Lodge (38S)
Deer Lodge, MT
Field Elevation: 4692
Lat: 49°23.27N  Long: 112°45.89W
CTAF/Unicom Freq: 120.0250
   
     For Weather-by-Phone, call 406-846-1177
Weather Advisories
9/17/2014 23:31 Z
Altimeter 29.95" Hg
Wind 190° @ 5 KT
Gusts --
Visibility 10 SM
Temperature 23° C (73° F)
Dewpoint 7° C (45° F)
Relative Humidity 37%
Density Altitude 6,600 feet
Condensation Altitude 12,500 feet
  Wind and Runways
Indicated Runway = 13
History
 
 
More Info
All DigiWx sites map
Weather Radar
NOAA Forecast
 
Airport IQ 5010
(S59) Libby
(6S5) Ravalli County
 
about DigiWx
 
FAA Disclaimer: The data displayed is for advisory purposes only and is not to be used for flight planning or operations. For official data, please call 406-846-1177 to hear the current automated AWOS voice message.
  METAR 38S 172331Z AUTO 19005KT 10SM 23/07 A2995